TimeMST,TemperatureF,Dew PointF,Humidity,Sea Level PressureIn,VisibilityMPH,Wind Direction,Wind SpeedMPH,Gust SpeedMPH,PrecipitationIn,Events,Conditions,WindDirDegrees,DateUTC
12:53 AM,41.0,24.1,51,30.04,-9999.0,SW,19.6,-,N/A,,Scattered Clouds,220,2013-01-25 07:53:00
1:53 AM,41.0,24.1,51,30.05,10.0,SW,15.0,24.2,N/A,,Clear,220,2013-01-25 08:53:00
2:53 AM,41.0,24.1,51,30.04,10.0,SW,19.6,25.3,N/A,,Partly Cloudy,220,2013-01-25 09:53:00
3:53 AM,41.0,25.0,53,30.02,10.0,SW,19.6,26.5,N/A,,Clear,220,2013-01-25 10:53:00
4:53 AM,42.1,24.1,49,30.04,10.0,SSW,19.6,28.8,N/A,,Clear,210,2013-01-25 11:53:00
5:53 AM,43.0,24.1,47,30.04,10.0,SSW,21.9,29.9,N/A,,Clear,200,2013-01-25 12:53:00
6:53 AM,43.0,25.0,49,30.04,10.0,SSW,20.7,26.5,N/A,,Clear,200,2013-01-25 13:53:00
7:53 AM,44.1,25.0,47,30.05,-9999.0,SSW,18.4,25.3,N/A,,Clear,200,2013-01-25 14:53:00
8:53 AM,44.1,26.1,49,30.04,10.0,SSW,19.6,-,N/A,,Clear,210,2013-01-25 15:53:00
9:53 AM,45.0,26.1,48,30.03,10.0,SSW,19.6,27.6,N/A,,Clear,210,2013-01-25 16:53:00
10:53 AM,46.9,27.0,46,30.02,10.0,SSW,13.8,-,N/A,,Clear,200,2013-01-25 17:53:00
11:53 AM,48.9,27.0,43,29.99,10.0,SSW,21.9,31.1,N/A,,Clear,200,2013-01-25 18:53:00
12:53 PM,48.0,28.0,46,29.96,10.0,SW,19.6,-,N/A,,Clear,220,2013-01-25 19:53:00
1:53 PM,48.9,28.0,44,29.95,10.0,SW,17.3,24.2,N/A,,Clear,220,2013-01-25 20:53:00
2:53 PM,48.9,28.9,46,29.95,10.0,SSW,15.0,20.7,N/A,,Clear,210,2013-01-25 21:53:00
3:53 PM,48.0,28.0,46,29.93,10.0,SSW,11.5,-,N/A,,Clear,210,2013-01-25 22:53:00
4:53 PM,46.9,28.9,50,29.92,10.0,SW,13.8,-,N/A,,Clear,220,2013-01-25 23:53:00
5:53 PM,46.9,28.9,50,29.91,10.0,SW,18.4,-,N/A,,Clear,230,2013-01-26 00:53:00
6:53 PM,46.9,30.0,52,29.90,10.0,SW,21.9,-,N/A,,Mostly Cloudy,220,2013-01-26 01:53:00
7:53 PM,46.0,28.9,51,29.89,10.0,SW,18.4,25.3,N/A,,Partly Cloudy,230,2013-01-26 02:53:00
8:53 PM,45.0,28.9,53,29.88,10.0,South,12.7,-,N/A,,Clear,180,2013-01-26 03:53:00
9:53 PM,45.0,28.9,53,29.88,10.0,SW,13.8,-,N/A,,Partly Cloudy,220,2013-01-26 04:53:00
10:53 PM,44.1,30.0,58,29.88,10.0,SW,15.0,-,N/A,,Mostly Cloudy,220,2013-01-26 05:53:00
11:53 PM,44.1,30.0,58,29.86,10.0,South,15.0,-,N/A,,Overcast,190,2013-01-26 06:53:00